STARLINK-33569 (62769 NORAD) Tracking and Keplerian Element Data

This shows tracking and keplerian element data for the satellite.

Feedback or suggestion? Click here.




ElementValue
Catalog62769
NameSTARLINK-33569
Epoch Orbit5227
Epoch Day353.9336925
Epoch Year2025
RAAN332.6686
Inclination53.1623
Eccentricity0.0001736
Argument of Perigee89.6233
Mean Anonmoly270.4966
Mean Motion15.30220141
Decay Rate0.00031929
L11 62769U 25015M 25353.93369250 .00031929 00000+0 10848-2 0 9994
L22 62769 53.1623 332.6686 0001736 89.6233 270.4966 15.30220141 52273



Live tracking and technical data element details for STARLINK-33569 (NORAD 62769). STARLINK-33569 can be tracked NOW for your location showing map with azimuth and elevation plus other details from your city location.







IsCatalogInMostPopularTable: catalog: 62769, numindb: 251
Update: records affected: 1



GetName: 62769 STARLINK-33569

Hit Count: updated at: Sat, 07 Mar 2026 04:08:12 GMT